sat.trackr.live / text

‹ back to catalog

KUIPER-00609

NORAD 69770 · 2026-151H

PAYLOAD ACTIVE UNKNOWN

§ Identity

Operator
Country
US
Launch date
2026-07-02
Launch site
AFETR
Launch vehicle
Mass (kg)
RCS (m²)

External: N2YO · Heavens-Above · Gunter

§ Orbital elements

Epoch: 2026-09-20T04:56:39.602688Z

Period
97.52 min
Inclination
51.9016°
Eccentricity
0.0002398
Mean motion
14.76620788 rev/d
Perigee alt
638.3 km
Apogee alt
641.7 km
Semi-major
7,018.1 km
B*
2.5334e-4
RAAN
227.8074°
Arg perigee
36.6812°
Mean anomaly
323.4313°
Rev number
1,216

§ Raw data

KUIPER-006091 69770U 26151H   26263.20601392  .00001571  00000+0  25334-3 0  99992 69770  51.9016 227.8074 0002398  36.6812 323.4313 14.76620788 12169

JSON: /api/v1/satellites/69770 · /tle

For live sub-satellite position, see the globe view (requires WebGL).

§ Visibility from observer

Set your observer location to see the next 7 days of passes ≥ 10°. The values pass through the URL so the page stays shareable.

No JS? Fill the form by hand. The geolocation button needs JavaScript.